Location: Montbazon
(47.2835°N, 0.6999°E)
Time: 06:33:00
(UTC+00:00)

CBERS-1 - Pass Details

Date: 08 November 2025
Orbit: 765 x 772 km, 98.8° (Epoch: 12 December)

Event Time Altitude Azimuth Distance (km) Brightness Sun altitude
Rises 06:08:26 0° 13° (NNE) 3,261 7.2 -7.6°
Reaches altitude 10° 06:10:45 10° 12° (NNE) 2,329 6.5 -7.3°
Maximum altitude 06:15:53 78° 287° (WNW) 796 4.0 -6.4°
Drops below altitude 10° 06:20:58 10° 202° (SSW) 2,309 6.5 -5.6°
Sets 06:23:16 0° 201° (SSW) 3,231 7.2 -5.2°
